AirNav   Everest Fuels
 
 666 users online  

3L2 Sky Ranch Airport
Sandy Valley, Nevada, USA

GOING TO SANDY VALLEY?


FAA INFORMATION EFFECTIVE 21 MAY 2020

Location

FAA Identifier: 3L2
Lat/Long: 35-47-34.6000N 115-37-35.1000W
35-47.576667N 115-37.585000W
35.7929444,-115.6264167
(estimated)
Elevation: 2599 ft. / 792.2 m (surveyed)
Variation: 14E (1985)
From city: 2 miles SW of SANDY VALLEY, NV
Time zone: UTC -7 (UTC -8 during Standard Time)
Zip code: 89019

Airport Operations

Airport use: Open to the public
Activation date: 06/1979
Control tower: no
ARTCC: LOS ANGELES CENTER
FSS: RENO FLIGHT SERVICE STATION
NOTAMs facility: RNO (NOTAM-D service available)
Attendance: IREG
Wind indicator: yes
Segmented circle: yes

Airport Communications

CTAF/UNICOM: 123.0

Nearby radio navigation aids

VOR radial/distance  VOR name  Freq  Var
LASr218/28.5LAS VEGAS VORTAC116.9015E
BLDr237/39.0BOULDER CITY VORTAC116.7015E

Airport Services

Parking: hangars and tiedowns

Runway Information

Runway 3/21

Dimensions: 3340 x 45 ft. / 1018 x 14 m
Surface: asphalt, in good condition
Runway edge lights: non-standard
RWY 03/21 RTHL ONLY. RWY EDGES MARKED WITH REFLECTORS.
RUNWAY 3  RUNWAY 21
Traffic pattern: rightleft
Displaced threshold: no180 ft.
DSPLCD THLD MARKED WITH 8 FT WHITE LINE.
Markings: basic, in good conditionbasic, in good condition
Obstructions: none17 ft. road, 200 ft. from runway
+16 FT ROAD, 0-200 FT FROM RWY END, 125 FT R TO OB. +4 FT FENCE, 0-200 FT FROM RWY END, 108 FT R TO OB.

Runway 12/30

Dimensions: 3300 x 105 ft. / 1006 x 32 m
Surface: dirt, in fair condition
Operational restrictions: RY 12/30 THLD NOT MARKED.
RUNWAY 12  RUNWAY 30
Latitude: 35-47.765960N35-47.388083N
Longitude: 115-37.825518W115-37.345095W
Elevation: 2575.0 ft.2575.0 ft.
Traffic pattern: rightleft
Runway heading: 120 magnetic, 134 true300 magnetic, 314 true
Markings: nonenone

Airport Ownership and Management from official FAA records

Ownership: Privately-owned
Owner: SKY RANCH HOMEOWNERS ASSN
838 SARATOGA AVENUE
SANDY VALLEY, NV 89019-8623
Phone 702-723-5018
Manager: STEVE VAN FRANK
838 SARATOGA AVENUE
SANDY VALLEY, NV 89019-8623
Phone 702-420-3559

Airport Operational Statistics

Aircraft based on the field: 86
Single engine airplanes: 72
Multi engine airplanes: 5
Helicopters: 2
Gliders airplanes: 2
Ultralights: 5
    
Aircraft operations: avg 80/week *
77% local general aviation
17% transient general aviation
4% military
1% air taxi
* for 12-month period ending 30 September 2019

Additional Remarks

AVOID NOISE SENSITIVE RESIDENTIAL AREA 1.5 MILES NW OF ARPT.
LOW FLYING MILITARY AIRCRAFT IN AREA.
UNMARKED & UNLIGHTED POWER POLES/LINES NW/SE OF RWY 03/21.
ARPT IS A RESIDENTIAL AIRPARK; AUTO TRAFFIC IS ON & ACROSS RWYS & TWYS.
OCNL LIVESTOCK ON AND INVOF ACFT MOVEMENT AREAS.
RY 03/21 OBSTACLE FREE AREA LIMITED TO 96 FT EITHER SIDE OF RY CNTRLN.
NO LINE OF SIGHT BTWN RY ENDS.
ULTRALIGHT ACTIVITY ON AND IN VICINTY OF AIRPORT.
FOR CD CTC LAS VEGAS APCH AT 725-200-4432.

Instrument Procedures

There are no published instrument procedures at 3L2.

Some nearby airports with instrument procedures:

KHND - Henderson Executive Airport (26 nm NE)
KLAS - Mc Carran International Airport (29 nm NE)
KVGT - North Las Vegas Airport (33 nm NE)
KBVU - Boulder City Municipal Airport (38 nm E)
KLSV - Nellis Air Force Base (39 nm NE)
 
Loc | Ops | Rwys | IFR | FBO | Links
Com | Nav | Svcs | Stats | Notes
Area around 3L2 (Sky Ranch Airport)
 
Road maps at: MapQuest Bing Google
 
Aerial photo
WARNING: Photo may not be current or correct
Aerial photo of 3L2 (Sky Ranch Airport)
Photo by Greg Tarasoff

Do you have a better or more recent aerial photo of Sky Ranch Airport that you would like to share? If so, please send us your photo.

 
Sectional chart

 
Airport distance calculator
Flying to Sky Ranch Airport? Find the distance to fly.

From to 3L2

Sunrise and sunset
Times for 06-Jun-2020
 Local
(UTC-7)
 Zulu
(UTC)
Morning civil twilight04:5711:57
Sunrise05:2712:27
Sunset19:5602:56
Evening civil twilight20:2503:25

Current date and time
Zulu (UTC)  07-Jun-2020 03:46:58
Local (UTC-7)  06-Jun-2020 20:46:58
 
METAR
KHND 
27nm NE 
070256Z AUTO RMK AO2 SLPNO 6//// PWINO FZRANO $
KLAS 
29nm NE 
070256Z 23017G31KT 10SM FEW120 FEW250 26/01 A2967 RMK AO2 PK WND 23031/0251 SLP028 T02560011 51008 $
KVGT 
32nm NE 
070253Z AUTO 20018G26KT 10SM CLR 27/01 A2965 RMK AO2 PK WND 20028/0230 SLP034 T02720011 53001
KBVU 
38nm E 
070335Z AUTO 23016KT 10SM CLR 25/M02 A2969 RMK AO2
KLSV 
39nm NE 
070258Z 21017G21KT 10SM CLR 27/01 A2964 RMK AO2A PK WND 21029/17 SLP016 WND DATA ESTMD T02700014 53004 $
KINS 
47nm N 
070258Z AUTO 21007KT 10SM CLR 26/M02 A2965 RMK AO2 SLP995 T02611017 53001 $
TAF
KHND 
27nm NE 
061734Z 0618/0718 20018G30KT P6SM FEW120 FEW250 FM062000 22023G37KT P6SM FEW200 FM070300 22019G30KT P6SM SKC FM071300 21009KT P6SM SKC
KLAS 
29nm NE 
062037Z 0621/0724 21022G33KT P6SM FEW120 SCT250 FM070300 21016G25KT P6SM FEW250 FM070900 22012KT P6SM FEW250
KVGT 
32nm NE 
061734Z 0618/0718 19020G30KT P6SM FEW120 FEW250 FM062000 21025G35KT P6SM FEW120 SCT250 FM070300 22014G23KT P6SM SKC FM070800 30009KT P6SM SKC
NOTAMs
Click for the latest NOTAMs
NOTAMs are issued by the DoD/FAA and will open in a separate window not controlled by AirNav.

 

 
 

Would you like to see your business listed on this page?

 If your business provides an interesting product or service to pilots, flight crews, aircraft, or users of the Sky Ranch Airport, you should consider listing it here.  To start the listing process, click on the button below
 
Add a business
 

Other Pages about Sky Ranch Airport

Update a link
 
Copyright © AirNav, LLC. All rights reserved. Privacy Policy  Contact